Mt. Pocono, PA

9:42 PM EDT on May 22, 2018 (GMT -0400)
Pocono Mountains Municipal

Weather History for KMPO - January, 2013

Change the Weather History Date:

Friday, January 4, 2013

  Actual Average Record
Temperature  
Mean Temperature 28 °F 24 °F  
Max Temperature 30 °F 31 °F 59 °F (1950)
Min Temperature 25 °F 16 °F -23 °F (1981)
Degree Days  
Heating Degree Days 37 41  
Month to date heating degree days 170 164  
Since 1 July heating degree days 2687 2901  
Cooling Degree Days 0 0  
Month to date cooling degree days 0 0  
Year to date cooling degree days 0 0  
Moisture  
Dew Point 18 °F    
Average Humidity 70    
Maximum Humidity 81    
Minimum Humidity 58    
Precipitation  
Precipitation T in 0.13 in 1.68 in (1999)
Month to date precipitation 0.01 0.52  
Year to date precipitation 0.01 0.52  
Sea Level Pressure  
Sea Level Pressure 29.99 in    
Wind  
Wind Speed 15 mph (West)    
Max Wind Speed 25 mph    
Max Gust Speed 37 mph    
Visibility 8 miles    
Events Snow    
T = Trace of Precipitation, MM = Missing Value Source: NWS Daily Summary

Daily Weather History Graph

Daily Weather History Graph

Search for Another Location

Airport or City:

Astronomy

Jan. 04, 2013 Rise Set
Actual Time 7:27 AM EST 4:46 PM EST
Civil Twilight 6:56 AM EST 5:17 PM EST
Nautical Twilight 6:21 AM EST 5:51 PM EST
Astronomical Twilight 5:48 AM EST 6:25 PM EST
Moon No Moon Rise 11:04 AM EST (1/4)
Length of Visible Light 10h 21m
Length of Day
9h 19m
Waning Gibbous, 55% of the Moon is Illuminated
Jan 4
Waning Gibbous
Jan 4
Last Quarter
Jan 11
New
Jan 18
First Quarter
Jan 26
Full

Hourly Weather History & Observations

Time (EST) Temp. Windchill Dew Point Humidity Pressure Visibility Wind Dir Wind Speed Gust Speed Precip Events Conditions
12:53 AM 25.0 °F 14.2 °F 17.1 °F 72% 30.03 in 10.0 mi West 11.5 mph - N/A   Overcast
1:53 AM 25.0 °F 14.2 °F 18.0 °F 75% 30.04 in 6.0 mi West 11.5 mph - 0.00 in Snow Light Snow
2:53 AM 25.0 °F 14.2 °F 19.9 °F 81% 30.05 in 4.0 mi West 11.5 mph - 0.00 in Snow Light Snow
3:53 AM 26.1 °F 14.0 °F 19.9 °F 78% 30.05 in 7.0 mi West 15.0 mph 21.9 mph 0.00 in Snow Light Snow
4:09 AM 26.6 °F 15.7 °F 19.4 °F 74% 29.96 in 9.0 mi West 12.7 mph 20.7 mph 0.00 in   Overcast
4:53 AM 26.1 °F 14.0 °F 19.9 °F 78% 30.04 in 10.0 mi West 15.0 mph 21.9 mph 0.00 in   Overcast
5:53 AM 26.1 °F 15.0 °F 19.0 °F 75% 30.04 in 10.0 mi WNW 12.7 mph 21.9 mph N/A   Overcast
6:53 AM 26.1 °F 13.1 °F 19.0 °F 75% 30.03 in 10.0 mi West 17.3 mph 24.2 mph N/A   Overcast
8:53 AM 26.1 °F 13.6 °F 18.0 °F 71% 30.04 in 5.0 mi WNW 16.1 mph 21.9 mph 0.00 in   Haze
9:53 AM 26.1 °F 15.6 °F 18.0 °F 71% 30.04 in 7.0 mi West 11.5 mph 19.6 mph 0.00 in   Overcast
10:53 AM 26.1 °F 13.6 °F 19.0 °F 75% 30.03 in 7.0 mi West 16.1 mph 26.5 mph N/A   Overcast
11:53 AM 27.0 °F 14.7 °F 18.0 °F 69% 30.00 in 9.0 mi West 16.1 mph 26.5 mph N/A   Overcast
12:53 PM 28.0 °F 14.6 °F 18.0 °F 66% 29.97 in 8.0 mi WNW 20.7 mph 29.9 mph N/A   Scattered Clouds
1:53 PM 28.9 °F 15.4 °F 18.0 °F 64% 29.95 in - West 21.9 mph 29.9 mph N/A   Clear
2:53 PM 30.0 °F 20.5 °F 17.1 °F 59% 29.94 in - West 11.5 mph 24.2 mph N/A   Clear
3:53 PM 28.9 °F 18.6 °F 17.1 °F 61% 29.94 in 10.0 mi West 12.7 mph 24.2 mph N/A   Clear
4:53 PM 28.0 °F 16.5 °F 17.1 °F 63% 29.94 in - West 15.0 mph 21.9 mph N/A   Clear
5:53 PM 27.0 °F 13.5 °F 17.1 °F 66% 29.95 in - West 19.6 mph 33.4 mph N/A   Clear
6:53 PM 26.1 °F 14.0 °F 18.0 °F 71% 29.97 in - WNW 15.0 mph 25.3 mph N/A   Clear
7:53 PM 26.1 °F 14.0 °F 17.1 °F 69% 29.97 in - WNW 15.0 mph 28.8 mph N/A   Clear
8:53 PM 26.1 °F 12.7 °F 16.0 °F 66% 29.96 in - WNW 18.4 mph 29.9 mph N/A   Clear
9:53 PM 26.1 °F 12.7 °F 16.0 °F 66% 29.96 in - WNW 18.4 mph 31.1 mph N/A   Clear
10:53 PM 26.1 °F 13.6 °F 15.1 °F 63% 29.98 in - WNW 16.1 mph 31.1 mph N/A   Clear